Location: College Park
(38.9810°N, 76.9370°W)
Time: 04:00:39
(UTC-04:00)

ISS - Pass Details

Date: 09 February 2018
Orbit: 402 x 406 km, 51.6° (Epoch: 18 June)

Event Time Altitude Azimuth Distance (km) Brightness Sun altitude
Rises 19:34:23 0° 308° (NW) 2,319 0.8 -23.0°
Reaches altitude 10° 19:36:28 10° 308° (NW) 1,457 -0.3 -23.4°
Enters shadow 19:38:25 33° 306° (NW) 698 -2.2 -23.8°
